This is the latest recevied weather packets stored in our database for station/object OE3BCB-14. If no packets are shown the sender has not sent any weather packets the latest 1 day(s).
| Time | Temp. | Humidity | Pressure | Rain* | Wind** | Luminosity | Snow |
|---|---|---|---|---|---|---|---|
| 1778005109 | 23.89° C | 25% | 1005.2 hPa | - | 0 m/s | 0 W/m² | - |
| 1778004807 | 24.44° C | 25% | 1005.1 hPa | - | 0 m/s | 1 W/m² | - |
| 1778004504 | 24.44° C | 24% | 1005.2 hPa | - | 0 m/s | 1 W/m² | - |
| 1778004202 | 25° C | 24% | 1005.2 hPa | - | 0 m/s | 2 W/m² | - |
| 1778003900 | 25.56° C | 23% | 1005.2 hPa | - | 0 m/s | 3 W/m² | - |
| 1778003597 | 26.11° C | 23% | 1005.2 hPa | - | 0 m/s | 5 W/m² | - |
| 1778003295 | 27.22° C | 22% | 1005.2 hPa | - | 0 m/s | 7 W/m² | - |
| 1778002992 | 27.78° C | 22% | 1005.2 hPa | - | 0 m/s | 10 W/m² | - |
| 1778002690 | 28.89° C | 21% | 1005.2 hPa | - | 0 m/s | 12 W/m² | - |
| 1778002387 | 30° C | 21% | 1005.2 hPa | - | 0 m/s | 14 W/m² | - |
| 1778002092 | 31.11° C | 21% | 1005.2 hPa | - | 0 m/s | 20 W/m² | - |
| 1778001783 | 31.11° C | 20% | 1005.2 hPa | - | 0 m/s | 25 W/m² | - |
| 1778001480 | 31.67° C | 20% | 1005.1 hPa | - | 0 m/s | 28 W/m² | - |
| 1778001178 | 31.11° C | 20% | 1005.1 hPa | - | 0 m/s | 30 W/m² | - |
| 1778000875 | 30.56° C | 20% | 1005.1 hPa | - | 0 m/s | 27 W/m² | - |
| 1778000573 | 30.56° C | 19% | 1005.1 hPa | - | 0 m/s | 17 W/m² | - |
| 1778000271 | 32.78° C | 18% | 1005.2 hPa | - | 0 m/s | 19 W/m² | - |
| 1777999968 | 35° C | 18% | 1005.2 hPa | - | 0 m/s | 40 W/m² | - |
| 1777999666 | 36.11° C | 17% | 1005.2 hPa | - | 0 m/s | 53 W/m² | - |
| 1777999363 | 36.67° C | 18% | 1005.3 hPa | - | 0 m/s | 69 W/m² | - |
| 1777998456 | 36.11° C | 18% | 1005.4 hPa | - | 0 m/s | 103 W/m² | - |
| 1777998154 | 34.44° C | 18% | 1005.5 hPa | - | 0 m/s | 109 W/m² | - |
| 1777997851 | 32.78° C | 19% | 1005.6 hPa | - | 0 m/s | 103 W/m² | - |
| 1777997549 | 31.67° C | 18% | 1005.6 hPa | - | 0 m/s | 52 W/m² | - |
| 1777997246 | 32.78° C | 17% | 1005.7 hPa | - | 0 m/s | 52 W/m² | - |
* Rain since midnight (hover to see other rain measurements)
** Current wind speed in m/s (hover to see current wind gust speed)